Location: Aiyede
(8.4833°N, 4.4500°E)
Time: 09:22:01
(UTC+00:00)

SEDSat Delta rocket - Pass Details

Date: 24 September 2020
Orbit: 533 x 1000 km, 31.4° (Epoch: 22 October)

Event Time Altitude Azimuth Distance (km) Brightness Sun altitude
Rises 19:17:33 0° 291° (WNW) 3,292 8.0 -25.7°
Reaches altitude 10° 19:20:21 10° 283° (WNW) 2,277 6.9 -26.4°
Maximum altitude 19:25:16 38° 216° (SW) 1,038 4.3 -27.6°
Enters shadow 19:25:43 37° 202° (SSW) 1,045 4.3 -27.8°
